Location: Edelsbach
(47.0167°N, 15.6000°E)
Time: 23:56:16
(UTC+00:00)

Cosmos 1703 Rocket - Pass Details

Date: 08 August 2020
Orbit: 605 x 634 km, 82.5° (Epoch: 23 September)

Event Time Altitude Azimuth Distance (km) Brightness Sun altitude
Rises 20:39:42 0° 353° (N) 2,892 8.0 -19.4°
Reaches altitude 10° 20:41:57 10° 356° (N) 1,978 7.0 -19.6°
Maximum altitude 20:46:18 64° 79° (ENE) 675 3.6 -20.1°
Enters shadow 20:47:07 52° 131° (SE) 760 3.6 -20.1°
